Index of /20260504/WXO-DD/model_gdps/15km/12/087
Name Last modified Size Description
Parent Directory -
20260504T12Z_MSC_GDPS_AbsoluteVorticity_IsbL-0200_LatLon0.15_PT087H.grib2 2026-05-04 16:44 1.2M
20260504T12Z_MSC_GDPS_AbsoluteVorticity_IsbL-0250_LatLon0.15_PT087H.grib2 2026-05-04 16:44 1.3M
20260504T12Z_MSC_GDPS_AbsoluteVorticity_IsbL-0500_LatLon0.15_PT087H.grib2 2026-05-04 16:44 1.4M
20260504T12Z_MSC_GDPS_AbsoluteVorticity_IsbL-0700_LatLon0.15_PT087H.grib2 2026-05-04 16:44 1.3M
20260504T12Z_MSC_GDPS_AbsoluteVorticity_IsbL-0850_LatLon0.15_PT087H.grib2 2026-05-04 16:44 1.6M
20260504T12Z_MSC_GDPS_AirTemp_AGL-120m_LatLon0.15_PT087H.grib2 2026-05-04 16:44 904K
20260504T12Z_MSC_GDPS_AirTemp_AGL-2m_LatLon0.15_PT087H.grib2 2026-05-04 16:44 1.0M
20260504T12Z_MSC_GDPS_AirTemp_AGL-40m_LatLon0.15_PT087H.grib2 2026-05-04 16:44 925K
20260504T12Z_MSC_GDPS_AirTemp_AGL-80m_LatLon0.15_PT087H.grib2 2026-05-04 16:44 913K
20260504T12Z_MSC_GDPS_AirTemp_IsbL-0001_LatLon0.15_PT087H.grib2 2026-05-04 16:44 671K
20260504T12Z_MSC_GDPS_AirTemp_IsbL-0005_LatLon0.15_PT087H.grib2 2026-05-04 16:44 691K
20260504T12Z_MSC_GDPS_AirTemp_IsbL-0010_LatLon0.15_PT087H.grib2 2026-05-04 16:44 695K
20260504T12Z_MSC_GDPS_AirTemp_IsbL-0020_LatLon0.15_PT087H.grib2 2026-05-04 16:44 786K
20260504T12Z_MSC_GDPS_AirTemp_IsbL-0030_LatLon0.15_PT087H.grib2 2026-05-04 16:44 836K
20260504T12Z_MSC_GDPS_AirTemp_IsbL-0050_LatLon0.15_PT087H.grib2 2026-05-04 16:44 801K
20260504T12Z_MSC_GDPS_AirTemp_IsbL-0100_LatLon0.15_PT087H.grib2 2026-05-04 16:44 956K
20260504T12Z_MSC_GDPS_AirTemp_IsbL-0150_LatLon0.15_PT087H.grib2 2026-05-04 16:44 1.0M
20260504T12Z_MSC_GDPS_AirTemp_IsbL-0175_LatLon0.15_PT087H.grib2 2026-05-04 16:44 1.0M
20260504T12Z_MSC_GDPS_AirTemp_IsbL-0200_LatLon0.15_PT087H.grib2 2026-05-04 16:44 964K
20260504T12Z_MSC_GDPS_AirTemp_IsbL-0225_LatLon0.15_PT087H.grib2 2026-05-04 16:44 963K
20260504T12Z_MSC_GDPS_AirTemp_IsbL-0250_LatLon0.15_PT087H.grib2 2026-05-04 16:44 1.0M
20260504T12Z_MSC_GDPS_AirTemp_IsbL-0275_LatLon0.15_PT087H.grib2 2026-05-04 16:44 1.0M
20260504T12Z_MSC_GDPS_AirTemp_IsbL-0300_LatLon0.15_PT087H.grib2 2026-05-04 16:44 1.0M
20260504T12Z_MSC_GDPS_AirTemp_IsbL-0350_LatLon0.15_PT087H.grib2 2026-05-04 16:44 921K
20260504T12Z_MSC_GDPS_AirTemp_IsbL-0400_LatLon0.15_PT087H.grib2 2026-05-04 16:44 933K
20260504T12Z_MSC_GDPS_AirTemp_IsbL-0450_LatLon0.15_PT087H.grib2 2026-05-04 16:44 958K
20260504T12Z_MSC_GDPS_AirTemp_IsbL-0500_LatLon0.15_PT087H.grib2 2026-05-04 16:44 1.0M
20260504T12Z_MSC_GDPS_AirTemp_IsbL-0550_LatLon0.15_PT087H.grib2 2026-05-04 16:44 794K
20260504T12Z_MSC_GDPS_AirTemp_IsbL-0600_LatLon0.15_PT087H.grib2 2026-05-04 16:44 885K
20260504T12Z_MSC_GDPS_AirTemp_IsbL-0650_LatLon0.15_PT087H.grib2 2026-05-04 16:44 911K
20260504T12Z_MSC_GDPS_AirTemp_IsbL-0700_LatLon0.15_PT087H.grib2 2026-05-04 16:44 949K
20260504T12Z_MSC_GDPS_AirTemp_IsbL-0750_LatLon0.15_PT087H.grib2 2026-05-04 16:44 1.0M
20260504T12Z_MSC_GDPS_AirTemp_IsbL-0800_LatLon0.15_PT087H.grib2 2026-05-04 16:44 1.1M
20260504T12Z_MSC_GDPS_AirTemp_IsbL-0850_LatLon0.15_PT087H.grib2 2026-05-04 16:44 1.1M
20260504T12Z_MSC_GDPS_AirTemp_IsbL-0875_LatLon0.15_PT087H.grib2 2026-05-04 16:44 1.2M
20260504T12Z_MSC_GDPS_AirTemp_IsbL-0900_LatLon0.15_PT087H.grib2 2026-05-04 16:44 1.1M
20260504T12Z_MSC_GDPS_AirTemp_IsbL-0925_LatLon0.15_PT087H.grib2 2026-05-04 16:44 1.1M
20260504T12Z_MSC_GDPS_AirTemp_IsbL-0950_LatLon0.15_PT087H.grib2 2026-05-04 16:44 1.1M
20260504T12Z_MSC_GDPS_AirTemp_IsbL-0970_LatLon0.15_PT087H.grib2 2026-05-04 16:44 1.1M
20260504T12Z_MSC_GDPS_AirTemp_IsbL-0985_LatLon0.15_PT087H.grib2 2026-05-04 16:44 1.1M
20260504T12Z_MSC_GDPS_AirTemp_IsbL-1000_LatLon0.15_PT087H.grib2 2026-05-04 16:44 1.1M
20260504T12Z_MSC_GDPS_AirTemp_IsbL-1015_LatLon0.15_PT087H.grib2 2026-05-04 16:44 1.1M
20260504T12Z_MSC_GDPS_Albedo_Sfc_LatLon0.15_PT087H.grib2 2026-05-04 16:44 242K
20260504T12Z_MSC_GDPS_CAPE_Sfc_LatLon0.15_PT087H.grib2 2026-05-04 16:44 3.9M
20260504T12Z_MSC_GDPS_CIN_Sfc_LatLon0.15_PT087H.grib2 2026-05-04 16:44 2.8M
20260504T12Z_MSC_GDPS_CloudWater_EAtm_LatLon0.15_PT087H.grib2 2026-05-04 16:44 536K
20260504T12Z_MSC_GDPS_ConvectivePrecip-Accum_Sfc_LatLon0.15_PT087H.grib2 2026-05-04 16:44 3.2M
20260504T12Z_MSC_GDPS_DewPointDepression_AGL-2m_LatLon0.15_PT087H.grib2 2026-05-04 16:44 762K
20260504T12Z_MSC_GDPS_DewPointDepression_IsbL-0010_LatLon0.15_PT087H.grib2 2026-05-04 16:44 83K
20260504T12Z_MSC_GDPS_DewPointDepression_IsbL-0020_LatLon0.15_PT087H.grib2 2026-05-04 16:44 72K
20260504T12Z_MSC_GDPS_DewPointDepression_IsbL-0030_LatLon0.15_PT087H.grib2 2026-05-04 16:44 91K
20260504T12Z_MSC_GDPS_DewPointDepression_IsbL-0050_LatLon0.15_PT087H.grib2 2026-05-04 16:44 382K
20260504T12Z_MSC_GDPS_DewPointDepression_IsbL-0100_LatLon0.15_PT087H.grib2 2026-05-04 16:44 398K
20260504T12Z_MSC_GDPS_DewPointDepression_IsbL-0150_LatLon0.15_PT087H.grib2 2026-05-04 16:44 488K
20260504T12Z_MSC_GDPS_DewPointDepression_IsbL-0175_LatLon0.15_PT087H.grib2 2026-05-04 16:44 591K
20260504T12Z_MSC_GDPS_DewPointDepression_IsbL-0200_LatLon0.15_PT087H.grib2 2026-05-04 16:44 695K
20260504T12Z_MSC_GDPS_DewPointDepression_IsbL-0225_LatLon0.15_PT087H.grib2 2026-05-04 16:44 776K
20260504T12Z_MSC_GDPS_DewPointDepression_IsbL-0250_LatLon0.15_PT087H.grib2 2026-05-04 16:44 868K
20260504T12Z_MSC_GDPS_DewPointDepression_IsbL-0275_LatLon0.15_PT087H.grib2 2026-05-04 16:44 885K
20260504T12Z_MSC_GDPS_DewPointDepression_IsbL-0300_LatLon0.15_PT087H.grib2 2026-05-04 16:44 931K
20260504T12Z_MSC_GDPS_DewPointDepression_IsbL-0350_LatLon0.15_PT087H.grib2 2026-05-04 16:44 954K
20260504T12Z_MSC_GDPS_DewPointDepression_IsbL-0400_LatLon0.15_PT087H.grib2 2026-05-04 16:44 1.0M
20260504T12Z_MSC_GDPS_DewPointDepression_IsbL-0450_LatLon0.15_PT087H.grib2 2026-05-04 16:44 1.0M
20260504T12Z_MSC_GDPS_DewPointDepression_IsbL-0500_LatLon0.15_PT087H.grib2 2026-05-04 16:44 1.0M
20260504T12Z_MSC_GDPS_DewPointDepression_IsbL-0550_LatLon0.15_PT087H.grib2 2026-05-04 16:44 1.0M
20260504T12Z_MSC_GDPS_DewPointDepression_IsbL-0600_LatLon0.15_PT087H.grib2 2026-05-04 16:44 1.0M
20260504T12Z_MSC_GDPS_DewPointDepression_IsbL-0650_LatLon0.15_PT087H.grib2 2026-05-04 16:44 1.0M
20260504T12Z_MSC_GDPS_DewPointDepression_IsbL-0700_LatLon0.15_PT087H.grib2 2026-05-04 16:44 1.1M
20260504T12Z_MSC_GDPS_DewPointDepression_IsbL-0750_LatLon0.15_PT087H.grib2 2026-05-04 16:44 1.1M
20260504T12Z_MSC_GDPS_DewPointDepression_IsbL-0800_LatLon0.15_PT087H.grib2 2026-05-04 16:44 1.2M
20260504T12Z_MSC_GDPS_DewPointDepression_IsbL-0850_LatLon0.15_PT087H.grib2 2026-05-04 16:44 1.2M
20260504T12Z_MSC_GDPS_DewPointDepression_IsbL-0875_LatLon0.15_PT087H.grib2 2026-05-04 16:44 1.1M
20260504T12Z_MSC_GDPS_DewPointDepression_IsbL-0900_LatLon0.15_PT087H.grib2 2026-05-04 16:44 1.1M
20260504T12Z_MSC_GDPS_DewPointDepression_IsbL-0925_LatLon0.15_PT087H.grib2 2026-05-04 16:44 1.0M
20260504T12Z_MSC_GDPS_DewPointDepression_IsbL-0950_LatLon0.15_PT087H.grib2 2026-05-04 16:44 1.0M
20260504T12Z_MSC_GDPS_DewPointDepression_IsbL-0970_LatLon0.15_PT087H.grib2 2026-05-04 16:44 1.0M
20260504T12Z_MSC_GDPS_DewPointDepression_IsbL-0985_LatLon0.15_PT087H.grib2 2026-05-04 16:44 1.0M
20260504T12Z_MSC_GDPS_DewPointDepression_IsbL-1000_LatLon0.15_PT087H.grib2 2026-05-04 16:44 1.0M
20260504T12Z_MSC_GDPS_DewPointDepression_IsbL-1015_LatLon0.15_PT087H.grib2 2026-05-04 16:44 917K
20260504T12Z_MSC_GDPS_DewPoint_AGL-2m_LatLon0.15_PT087H.grib2 2026-05-04 16:44 608K
20260504T12Z_MSC_GDPS_DownwardLongwaveRadiationFlux-Accum_Sfc_LatLon0.15_PT087H.grib2 2026-05-04 16:44 704K
20260504T12Z_MSC_GDPS_DownwardShortwaveRadiationFlux-Accum_NTAtm_LatLon0.15_PT087H.grib2 2026-05-04 16:44 269K
20260504T12Z_MSC_GDPS_DownwardShortwaveRadiationFlux-Accum_Sfc_LatLon0.15_PT087H.grib2 2026-05-04 16:44 914K
20260504T12Z_MSC_GDPS_FreezingRain-Accum1h_Sfc_LatLon0.15_PT087H.grib2 2026-05-04 16:44 38K
20260504T12Z_MSC_GDPS_FreezingRain-Accum3h_Sfc_LatLon0.15_PT087H.grib2 2026-05-04 16:44 48K
20260504T12Z_MSC_GDPS_FreezingRain-Accum_Sfc_LatLon0.15_PT087H.grib2 2026-05-04 16:44 334K
20260504T12Z_MSC_GDPS_GeopotentialHeight_IsbL-0001_LatLon0.15_PT087H.grib2 2026-05-04 16:44 434K
20260504T12Z_MSC_GDPS_GeopotentialHeight_IsbL-0005_LatLon0.15_PT087H.grib2 2026-05-04 16:44 481K
20260504T12Z_MSC_GDPS_GeopotentialHeight_IsbL-0010_LatLon0.15_PT087H.grib2 2026-05-04 16:44 471K
20260504T12Z_MSC_GDPS_GeopotentialHeight_IsbL-0020_LatLon0.15_PT087H.grib2 2026-05-04 16:44 412K
20260504T12Z_MSC_GDPS_GeopotentialHeight_IsbL-0030_LatLon0.15_PT087H.grib2 2026-05-04 16:44 419K
20260504T12Z_MSC_GDPS_GeopotentialHeight_IsbL-0050_LatLon0.15_PT087H.grib2 2026-05-04 16:44 572K
20260504T12Z_MSC_GDPS_GeopotentialHeight_IsbL-0100_LatLon0.15_PT087H.grib2 2026-05-04 16:44 610K
20260504T12Z_MSC_GDPS_GeopotentialHeight_IsbL-0150_LatLon0.15_PT087H.grib2 2026-05-04 16:44 629K
20260504T12Z_MSC_GDPS_GeopotentialHeight_IsbL-0175_LatLon0.15_PT087H.grib2 2026-05-04 16:44 633K
20260504T12Z_MSC_GDPS_GeopotentialHeight_IsbL-0200_LatLon0.15_PT087H.grib2 2026-05-04 16:44 637K
20260504T12Z_MSC_GDPS_GeopotentialHeight_IsbL-0225_LatLon0.15_PT087H.grib2 2026-05-04 16:44 637K
20260504T12Z_MSC_GDPS_GeopotentialHeight_IsbL-0250_LatLon0.15_PT087H.grib2 2026-05-04 16:44 637K
20260504T12Z_MSC_GDPS_GeopotentialHeight_IsbL-0275_LatLon0.15_PT087H.grib2 2026-05-04 16:44 635K
20260504T12Z_MSC_GDPS_GeopotentialHeight_IsbL-0300_LatLon0.15_PT087H.grib2 2026-05-04 16:44 634K
20260504T12Z_MSC_GDPS_GeopotentialHeight_IsbL-0350_LatLon0.15_PT087H.grib2 2026-05-04 16:44 626K
20260504T12Z_MSC_GDPS_GeopotentialHeight_IsbL-0400_LatLon0.15_PT087H.grib2 2026-05-04 16:44 617K
20260504T12Z_MSC_GDPS_GeopotentialHeight_IsbL-0450_LatLon0.15_PT087H.grib2 2026-05-04 16:44 537K
20260504T12Z_MSC_GDPS_GeopotentialHeight_IsbL-0500_LatLon0.15_PT087H.grib2 2026-05-04 16:44 526K
20260504T12Z_MSC_GDPS_GeopotentialHeight_IsbL-0550_LatLon0.15_PT087H.grib2 2026-05-04 16:44 522K
20260504T12Z_MSC_GDPS_GeopotentialHeight_IsbL-0600_LatLon0.15_PT087H.grib2 2026-05-04 16:44 685K
20260504T12Z_MSC_GDPS_GeopotentialHeight_IsbL-0650_LatLon0.15_PT087H.grib2 2026-05-04 16:44 683K
20260504T12Z_MSC_GDPS_GeopotentialHeight_IsbL-0700_LatLon0.15_PT087H.grib2 2026-05-04 16:44 684K
20260504T12Z_MSC_GDPS_GeopotentialHeight_IsbL-0750_LatLon0.15_PT087H.grib2 2026-05-04 16:44 689K
20260504T12Z_MSC_GDPS_GeopotentialHeight_IsbL-0800_LatLon0.15_PT087H.grib2 2026-05-04 16:44 699K
20260504T12Z_MSC_GDPS_GeopotentialHeight_IsbL-0850_LatLon0.15_PT087H.grib2 2026-05-04 16:44 712K
20260504T12Z_MSC_GDPS_GeopotentialHeight_IsbL-0875_LatLon0.15_PT087H.grib2 2026-05-04 16:44 717K
20260504T12Z_MSC_GDPS_GeopotentialHeight_IsbL-0900_LatLon0.15_PT087H.grib2 2026-05-04 16:44 723K
20260504T12Z_MSC_GDPS_GeopotentialHeight_IsbL-0925_LatLon0.15_PT087H.grib2 2026-05-04 16:44 731K
20260504T12Z_MSC_GDPS_GeopotentialHeight_IsbL-0950_LatLon0.15_PT087H.grib2 2026-05-04 16:44 735K
20260504T12Z_MSC_GDPS_GeopotentialHeight_IsbL-0970_LatLon0.15_PT087H.grib2 2026-05-04 16:44 748K
20260504T12Z_MSC_GDPS_GeopotentialHeight_IsbL-0985_LatLon0.15_PT087H.grib2 2026-05-04 16:44 763K
20260504T12Z_MSC_GDPS_GeopotentialHeight_IsbL-1000_LatLon0.15_PT087H.grib2 2026-05-04 16:44 782K
20260504T12Z_MSC_GDPS_GeopotentialHeight_IsbL-1015_LatLon0.15_PT087H.grib2 2026-05-04 16:44 803K
20260504T12Z_MSC_GDPS_Humidex_Sfc_LatLon0.15_PT087H.grib2 2026-05-04 16:44 5.3M
20260504T12Z_MSC_GDPS_IcePellets-Accum1h_Sfc_LatLon0.15_PT087H.grib2 2026-05-04 16:44 11K
20260504T12Z_MSC_GDPS_IcePellets-Accum3h_Sfc_LatLon0.15_PT087H.grib2 2026-05-04 16:44 14K
20260504T12Z_MSC_GDPS_IcePellets-Accum_Sfc_LatLon0.15_PT087H.grib2 2026-05-04 16:44 96K
20260504T12Z_MSC_GDPS_KIndex_Sfc_LatLon0.15_PT087H.grib2 2026-05-04 16:44 6.5M
20260504T12Z_MSC_GDPS_LatentHeatNetFlux_Sfc_LatLon0.15_PT087H.grib2 2026-05-04 16:44 516K
20260504T12Z_MSC_GDPS_LiftedIndex-MU-VT_IsbL-0500_LatLon0.15_PT087H.grib2 2026-05-04 16:44 5.4M
20260504T12Z_MSC_GDPS_NetLongwaveRadiationFlux-Accum_Sfc_LatLon0.15_PT087H.grib2 2026-05-04 16:44 937K
20260504T12Z_MSC_GDPS_NetShortwaveRadiationFlux-Accum_Sfc_LatLon0.15_PT087H.grib2 2026-05-04 16:44 897K
20260504T12Z_MSC_GDPS_O3MixingRatio_Sfc_LatLon0.15_PT087H.grib2 2026-05-04 17:18 1.9M
20260504T12Z_MSC_GDPS_O3_EAtm_LatLon0.15_PT087H.grib2 2026-05-04 17:18 2.4M
20260504T12Z_MSC_GDPS_PlanetaryBoundaryLayerHeight_Sfc_LatLon0.15_PT087H.grib2 2026-05-04 16:44 2.4M
20260504T12Z_MSC_GDPS_Precip-Accum1h_Sfc_LatLon0.15_PT087H.grib2 2026-05-04 16:44 3.2M
20260504T12Z_MSC_GDPS_Precip-Accum3h_Sfc_LatLon0.15_PT087H.grib2 2026-05-04 16:44 3.5M
20260504T12Z_MSC_GDPS_Precip-Accum_Sfc_LatLon0.15_PT087H.grib2 2026-05-04 16:44 5.0M
20260504T12Z_MSC_GDPS_PrecipRate_Sfc_LatLon0.15_PT087H.grib2 2026-05-04 16:44 3.1M
20260504T12Z_MSC_GDPS_PrecipType-Instant_Sfc_LatLon0.15_PT087H.grib2 2026-05-04 16:44 1.5M
20260504T12Z_MSC_GDPS_Pressure_MSL_LatLon0.15_PT087H.grib2 2026-05-04 16:44 714K
20260504T12Z_MSC_GDPS_Pressure_Sfc_LatLon0.15_PT087H.grib2 2026-05-04 16:44 1.1M
20260504T12Z_MSC_GDPS_RadiativeTemp_Sfc_LatLon0.15_PT087H.grib2 2026-05-04 16:44 665K
20260504T12Z_MSC_GDPS_Rain-Accum1h_Sfc_LatLon0.15_PT087H.grib2 2026-05-04 16:44 1.6M
20260504T12Z_MSC_GDPS_Rain-Accum3h_Sfc_LatLon0.15_PT087H.grib2 2026-05-04 16:44 1.8M
20260504T12Z_MSC_GDPS_Rain-Accum_Sfc_LatLon0.15_PT087H.grib2 2026-05-04 16:44 3.9M
20260504T12Z_MSC_GDPS_RelativeHumidity_AGL-2m_LatLon0.15_PT087H.grib2 2026-05-04 16:44 1.0M
20260504T12Z_MSC_GDPS_RelativeHumidity_IsbL-0010_LatLon0.15_PT087H.grib2 2026-05-04 16:44 210K
20260504T12Z_MSC_GDPS_RelativeHumidity_IsbL-0020_LatLon0.15_PT087H.grib2 2026-05-04 16:44 169K
20260504T12Z_MSC_GDPS_RelativeHumidity_IsbL-0030_LatLon0.15_PT087H.grib2 2026-05-04 16:44 267K
20260504T12Z_MSC_GDPS_RelativeHumidity_IsbL-0050_LatLon0.15_PT087H.grib2 2026-05-04 16:44 333K
20260504T12Z_MSC_GDPS_RelativeHumidity_IsbL-0100_LatLon0.15_PT087H.grib2 2026-05-04 16:44 505K
20260504T12Z_MSC_GDPS_RelativeHumidity_IsbL-0150_LatLon0.15_PT087H.grib2 2026-05-04 16:44 677K
20260504T12Z_MSC_GDPS_RelativeHumidity_IsbL-0175_LatLon0.15_PT087H.grib2 2026-05-04 16:44 794K
20260504T12Z_MSC_GDPS_RelativeHumidity_IsbL-0200_LatLon0.15_PT087H.grib2 2026-05-04 16:44 710K
20260504T12Z_MSC_GDPS_RelativeHumidity_IsbL-0225_LatLon0.15_PT087H.grib2 2026-05-04 16:44 792K
20260504T12Z_MSC_GDPS_RelativeHumidity_IsbL-0250_LatLon0.15_PT087H.grib2 2026-05-04 16:44 861K
20260504T12Z_MSC_GDPS_RelativeHumidity_IsbL-0275_LatLon0.15_PT087H.grib2 2026-05-04 16:44 878K
20260504T12Z_MSC_GDPS_RelativeHumidity_IsbL-0300_LatLon0.15_PT087H.grib2 2026-05-04 16:44 921K
20260504T12Z_MSC_GDPS_RelativeHumidity_IsbL-0350_LatLon0.15_PT087H.grib2 2026-05-04 16:44 939K
20260504T12Z_MSC_GDPS_RelativeHumidity_IsbL-0400_LatLon0.15_PT087H.grib2 2026-05-04 16:44 965K
20260504T12Z_MSC_GDPS_RelativeHumidity_IsbL-0450_LatLon0.15_PT087H.grib2 2026-05-04 16:44 1.0M
20260504T12Z_MSC_GDPS_RelativeHumidity_IsbL-0500_LatLon0.15_PT087H.grib2 2026-05-04 16:44 1.0M
20260504T12Z_MSC_GDPS_RelativeHumidity_IsbL-0550_LatLon0.15_PT087H.grib2 2026-05-04 16:44 1.0M
20260504T12Z_MSC_GDPS_RelativeHumidity_IsbL-0600_LatLon0.15_PT087H.grib2 2026-05-04 16:44 1.0M
20260504T12Z_MSC_GDPS_RelativeHumidity_IsbL-0650_LatLon0.15_PT087H.grib2 2026-05-04 16:44 1.0M
20260504T12Z_MSC_GDPS_RelativeHumidity_IsbL-0700_LatLon0.15_PT087H.grib2 2026-05-04 16:44 1.1M
20260504T12Z_MSC_GDPS_RelativeHumidity_IsbL-0750_LatLon0.15_PT087H.grib2 2026-05-04 16:44 1.2M
20260504T12Z_MSC_GDPS_RelativeHumidity_IsbL-0800_LatLon0.15_PT087H.grib2 2026-05-04 16:44 1.2M
20260504T12Z_MSC_GDPS_RelativeHumidity_IsbL-0850_LatLon0.15_PT087H.grib2 2026-05-04 16:44 1.3M
20260504T12Z_MSC_GDPS_RelativeHumidity_IsbL-0875_LatLon0.15_PT087H.grib2 2026-05-04 16:44 1.3M
20260504T12Z_MSC_GDPS_RelativeHumidity_IsbL-0900_LatLon0.15_PT087H.grib2 2026-05-04 16:44 1.2M
20260504T12Z_MSC_GDPS_RelativeHumidity_IsbL-0925_LatLon0.15_PT087H.grib2 2026-05-04 16:44 1.2M
20260504T12Z_MSC_GDPS_RelativeHumidity_IsbL-0950_LatLon0.15_PT087H.grib2 2026-05-04 16:44 1.2M
20260504T12Z_MSC_GDPS_RelativeHumidity_IsbL-0970_LatLon0.15_PT087H.grib2 2026-05-04 16:44 1.2M
20260504T12Z_MSC_GDPS_RelativeHumidity_IsbL-0985_LatLon0.15_PT087H.grib2 2026-05-04 16:44 1.1M
20260504T12Z_MSC_GDPS_RelativeHumidity_IsbL-1000_LatLon0.15_PT087H.grib2 2026-05-04 16:44 1.1M
20260504T12Z_MSC_GDPS_RelativeHumidity_IsbL-1015_LatLon0.15_PT087H.grib2 2026-05-04 16:44 1.0M
20260504T12Z_MSC_GDPS_RelativeVorticity_IsbL-0200_LatLon0.15_PT087H.grib2 2026-05-04 16:44 1.2M
20260504T12Z_MSC_GDPS_RelativeVorticity_IsbL-0250_LatLon0.15_PT087H.grib2 2026-05-04 16:44 1.3M
20260504T12Z_MSC_GDPS_RelativeVorticity_IsbL-0500_LatLon0.15_PT087H.grib2 2026-05-04 16:44 1.4M
20260504T12Z_MSC_GDPS_RelativeVorticity_IsbL-0700_LatLon0.15_PT087H.grib2 2026-05-04 16:44 1.3M
20260504T12Z_MSC_GDPS_RelativeVorticity_IsbL-0850_LatLon0.15_PT087H.grib2 2026-05-04 16:44 1.6M
20260504T12Z_MSC_GDPS_Runoff-Accum_Sfc_LatLon0.15_PT087H.grib2 2026-05-04 16:44 121K
20260504T12Z_MSC_GDPS_SensibleHeatNetFlux_Sfc_LatLon0.15_PT087H.grib2 2026-05-04 16:44 465K
20260504T12Z_MSC_GDPS_ShowalterIndex_IsbL-0500_LatLon0.15_PT087H.grib2 2026-05-04 16:44 6.2M
20260504T12Z_MSC_GDPS_Snow-Accum1h_Sfc_LatLon0.15_PT087H.grib2 2026-05-04 16:44 1.2M
20260504T12Z_MSC_GDPS_Snow-Accum3h_Sfc_LatLon0.15_PT087H.grib2 2026-05-04 16:44 1.1M
20260504T12Z_MSC_GDPS_Snow-Accum_Sfc_LatLon0.15_PT087H.grib2 2026-05-04 16:44 2.0M
20260504T12Z_MSC_GDPS_SnowDensity_Sfc_LatLon0.15_PT087H.grib2 2026-05-04 16:44 258K
20260504T12Z_MSC_GDPS_SnowDepth_Sfc_LatLon0.15_PT087H.grib2 2026-05-04 16:44 1.7M
20260504T12Z_MSC_GDPS_SoilTemp_DBS-0to10cm_LatLon0.15_PT087H.grib2 2026-05-04 16:44 511K
20260504T12Z_MSC_GDPS_SoilTemp_Sfc_LatLon0.15_PT087H.grib2 2026-05-04 16:44 582K
20260504T12Z_MSC_GDPS_SoilVolumetricIceContent_Sfc_LatLon0.15_PT087H.grib2 2026-05-04 16:44 184K
20260504T12Z_MSC_GDPS_SoilVolumetricWaterContent_DBS-0to10cm_LatLon0.15_PT087H.grib2 2026-05-04 16:44 596K
20260504T12Z_MSC_GDPS_SoilVolumetricWaterContent_DBS-0to1cm_LatLon0.15_PT087H.grib2 2026-05-04 16:44 657K
20260504T12Z_MSC_GDPS_SpecificHumidity_AGL-120m_LatLon0.15_PT087H.grib2 2026-05-04 16:44 1.1M
20260504T12Z_MSC_GDPS_SpecificHumidity_AGL-2m_LatLon0.15_PT087H.grib2 2026-05-04 16:44 1.2M
20260504T12Z_MSC_GDPS_SpecificHumidity_AGL-40m_LatLon0.15_PT087H.grib2 2026-05-04 16:44 1.1M
20260504T12Z_MSC_GDPS_SpecificHumidity_AGL-80m_LatLon0.15_PT087H.grib2 2026-05-04 16:44 1.1M
20260504T12Z_MSC_GDPS_SpecificHumidity_IsbL-0001_LatLon0.15_PT087H.grib2 2026-05-04 16:44 1.3M
20260504T12Z_MSC_GDPS_SpecificHumidity_IsbL-0005_LatLon0.15_PT087H.grib2 2026-05-04 16:44 1.2M
20260504T12Z_MSC_GDPS_SpecificHumidity_IsbL-0010_LatLon0.15_PT087H.grib2 2026-05-04 16:44 1.3M
20260504T12Z_MSC_GDPS_SpecificHumidity_IsbL-0020_LatLon0.15_PT087H.grib2 2026-05-04 16:44 1.3M
20260504T12Z_MSC_GDPS_SpecificHumidity_IsbL-0030_LatLon0.15_PT087H.grib2 2026-05-04 16:44 1.3M
20260504T12Z_MSC_GDPS_SpecificHumidity_IsbL-0050_LatLon0.15_PT087H.grib2 2026-05-04 16:44 1.6M
20260504T12Z_MSC_GDPS_SpecificHumidity_IsbL-0100_LatLon0.15_PT087H.grib2 2026-05-04 16:44 1.0M
20260504T12Z_MSC_GDPS_SpecificHumidity_IsbL-0150_LatLon0.15_PT087H.grib2 2026-05-04 16:44 1.3M
20260504T12Z_MSC_GDPS_SpecificHumidity_IsbL-0175_LatLon0.15_PT087H.grib2 2026-05-04 16:44 1.3M
20260504T12Z_MSC_GDPS_SpecificHumidity_IsbL-0200_LatLon0.15_PT087H.grib2 2026-05-04 16:44 1.3M
20260504T12Z_MSC_GDPS_SpecificHumidity_IsbL-0225_LatLon0.15_PT087H.grib2 2026-05-04 16:44 1.3M
20260504T12Z_MSC_GDPS_SpecificHumidity_IsbL-0250_LatLon0.15_PT087H.grib2 2026-05-04 16:44 1.2M
20260504T12Z_MSC_GDPS_SpecificHumidity_IsbL-0275_LatLon0.15_PT087H.grib2 2026-05-04 16:44 1.3M
20260504T12Z_MSC_GDPS_SpecificHumidity_IsbL-0300_LatLon0.15_PT087H.grib2 2026-05-04 16:44 1.2M
20260504T12Z_MSC_GDPS_SpecificHumidity_IsbL-0350_LatLon0.15_PT087H.grib2 2026-05-04 16:44 1.2M
20260504T12Z_MSC_GDPS_SpecificHumidity_IsbL-0400_LatLon0.15_PT087H.grib2 2026-05-04 16:44 1.5M
20260504T12Z_MSC_GDPS_SpecificHumidity_IsbL-0450_LatLon0.15_PT087H.grib2 2026-05-04 16:44 1.3M
20260504T12Z_MSC_GDPS_SpecificHumidity_IsbL-0500_LatLon0.15_PT087H.grib2 2026-05-04 16:44 1.4M
20260504T12Z_MSC_GDPS_SpecificHumidity_IsbL-0550_LatLon0.15_PT087H.grib2 2026-05-04 16:44 1.6M
20260504T12Z_MSC_GDPS_SpecificHumidity_IsbL-0600_LatLon0.15_PT087H.grib2 2026-05-04 16:44 1.4M
20260504T12Z_MSC_GDPS_SpecificHumidity_IsbL-0650_LatLon0.15_PT087H.grib2 2026-05-04 16:44 1.5M
20260504T12Z_MSC_GDPS_SpecificHumidity_IsbL-0700_LatLon0.15_PT087H.grib2 2026-05-04 16:44 1.6M
20260504T12Z_MSC_GDPS_SpecificHumidity_IsbL-0750_LatLon0.15_PT087H.grib2 2026-05-04 16:44 1.7M
20260504T12Z_MSC_GDPS_SpecificHumidity_IsbL-0800_LatLon0.15_PT087H.grib2 2026-05-04 16:44 1.9M
20260504T12Z_MSC_GDPS_SpecificHumidity_IsbL-0850_LatLon0.15_PT087H.grib2 2026-05-04 16:44 1.9M
20260504T12Z_MSC_GDPS_SpecificHumidity_IsbL-0875_LatLon0.15_PT087H.grib2 2026-05-04 16:44 2.0M
20260504T12Z_MSC_GDPS_SpecificHumidity_IsbL-0900_LatLon0.15_PT087H.grib2 2026-05-04 16:44 1.9M
20260504T12Z_MSC_GDPS_SpecificHumidity_IsbL-0925_LatLon0.15_PT087H.grib2 2026-05-04 16:44 1.6M
20260504T12Z_MSC_GDPS_SpecificHumidity_IsbL-0950_LatLon0.15_PT087H.grib2 2026-05-04 16:44 1.6M
20260504T12Z_MSC_GDPS_SpecificHumidity_IsbL-0970_LatLon0.15_PT087H.grib2 2026-05-04 16:44 1.5M
20260504T12Z_MSC_GDPS_SpecificHumidity_IsbL-0985_LatLon0.15_PT087H.grib2 2026-05-04 16:44 1.5M
20260504T12Z_MSC_GDPS_SpecificHumidity_IsbL-1000_LatLon0.15_PT087H.grib2 2026-05-04 16:44 1.5M
20260504T12Z_MSC_GDPS_SpecificHumidity_IsbL-1015_LatLon0.15_PT087H.grib2 2026-05-04 16:44 1.5M
20260504T12Z_MSC_GDPS_SpecificHumidity_Sfc_LatLon0.15_PT087H.grib2 2026-05-04 16:44 669K
20260504T12Z_MSC_GDPS_Thickness_IsbL-0850to0700_LatLon0.15_PT087H.grib2 2026-05-04 16:44 469K
20260504T12Z_MSC_GDPS_Thickness_IsbL-1000to0500_LatLon0.15_PT087H.grib2 2026-05-04 16:44 371K
20260504T12Z_MSC_GDPS_Thickness_IsbL-1000to0850_LatLon0.15_PT087H.grib2 2026-05-04 16:44 489K
20260504T12Z_MSC_GDPS_TotalCloudCover_Sfc_LatLon0.15_PT087H.grib2 2026-05-04 16:44 820K
20260504T12Z_MSC_GDPS_TotalTotalsIndex_Sfc_LatLon0.15_PT087H.grib2 2026-05-04 16:44 6.2M
20260504T12Z_MSC_GDPS_UVIndex-ClearSky_Sfc_LatLon0.15_PT087H.grib2 2026-05-04 17:18 1.0M
20260504T12Z_MSC_GDPS_UVIndex_Sfc_LatLon0.15_PT087H.grib2 2026-05-04 17:18 1.5M
20260504T12Z_MSC_GDPS_UpwardLongwaveRadiationFlux_NTAtm_LatLon0.15_PT087H.grib2 2026-05-04 16:44 825K
20260504T12Z_MSC_GDPS_VerticalVelocity_IsbL-0200_LatLon0.15_PT087H.grib2 2026-05-04 16:44 1.1M
20260504T12Z_MSC_GDPS_VerticalVelocity_IsbL-0250_LatLon0.15_PT087H.grib2 2026-05-04 16:44 1.0M
20260504T12Z_MSC_GDPS_VerticalVelocity_IsbL-0500_LatLon0.15_PT087H.grib2 2026-05-04 16:44 1.2M
20260504T12Z_MSC_GDPS_VerticalVelocity_IsbL-0600_LatLon0.15_PT087H.grib2 2026-05-04 16:44 1.3M
20260504T12Z_MSC_GDPS_VerticalVelocity_IsbL-0700_LatLon0.15_PT087H.grib2 2026-05-04 16:44 1.4M
20260504T12Z_MSC_GDPS_VerticalVelocity_IsbL-0850_LatLon0.15_PT087H.grib2 2026-05-04 16:44 1.6M
20260504T12Z_MSC_GDPS_WindChill_Sfc_LatLon0.15_PT087H.grib2 2026-05-04 16:44 5.3M
20260504T12Z_MSC_GDPS_WindDir_AGL-10m_LatLon0.15_PT087H.grib2 2026-05-04 16:44 1.3M
20260504T12Z_MSC_GDPS_WindDir_AGL-120m_LatLon0.15_PT087H.grib2 2026-05-04 16:44 1.3M
20260504T12Z_MSC_GDPS_WindDir_AGL-40m_LatLon0.15_PT087H.grib2 2026-05-04 16:44 1.4M
20260504T12Z_MSC_GDPS_WindDir_AGL-80m_LatLon0.15_PT087H.grib2 2026-05-04 16:44 1.4M
20260504T12Z_MSC_GDPS_WindDir_IsbL-0001_LatLon0.15_PT087H.grib2 2026-05-04 16:44 661K
20260504T12Z_MSC_GDPS_WindDir_IsbL-0005_LatLon0.15_PT087H.grib2 2026-05-04 16:44 821K
20260504T12Z_MSC_GDPS_WindDir_IsbL-0010_LatLon0.15_PT087H.grib2 2026-05-04 16:44 840K
20260504T12Z_MSC_GDPS_WindDir_IsbL-0020_LatLon0.15_PT087H.grib2 2026-05-04 16:44 939K
20260504T12Z_MSC_GDPS_WindDir_IsbL-0030_LatLon0.15_PT087H.grib2 2026-05-04 16:44 930K
20260504T12Z_MSC_GDPS_WindDir_IsbL-0050_LatLon0.15_PT087H.grib2 2026-05-04 16:44 947K
20260504T12Z_MSC_GDPS_WindDir_IsbL-0100_LatLon0.15_PT087H.grib2 2026-05-04 16:44 1.0M
20260504T12Z_MSC_GDPS_WindDir_IsbL-0150_LatLon0.15_PT087H.grib2 2026-05-04 16:44 1.0M
20260504T12Z_MSC_GDPS_WindDir_IsbL-0175_LatLon0.15_PT087H.grib2 2026-05-04 16:44 1.0M
20260504T12Z_MSC_GDPS_WindDir_IsbL-0200_LatLon0.15_PT087H.grib2 2026-05-04 16:44 1.1M
20260504T12Z_MSC_GDPS_WindDir_IsbL-0225_LatLon0.15_PT087H.grib2 2026-05-04 16:44 1.1M
20260504T12Z_MSC_GDPS_WindDir_IsbL-0250_LatLon0.15_PT087H.grib2 2026-05-04 16:44 1.1M
20260504T12Z_MSC_GDPS_WindDir_IsbL-0275_LatLon0.15_PT087H.grib2 2026-05-04 16:44 1.2M
20260504T12Z_MSC_GDPS_WindDir_IsbL-0300_LatLon0.15_PT087H.grib2 2026-05-04 16:44 1.2M
20260504T12Z_MSC_GDPS_WindDir_IsbL-0350_LatLon0.15_PT087H.grib2 2026-05-04 16:44 1.2M
20260504T12Z_MSC_GDPS_WindDir_IsbL-0400_LatLon0.15_PT087H.grib2 2026-05-04 16:44 1.3M
20260504T12Z_MSC_GDPS_WindDir_IsbL-0450_LatLon0.15_PT087H.grib2 2026-05-04 16:44 1.3M
20260504T12Z_MSC_GDPS_WindDir_IsbL-0500_LatLon0.15_PT087H.grib2 2026-05-04 16:44 1.4M
20260504T12Z_MSC_GDPS_WindDir_IsbL-0550_LatLon0.15_PT087H.grib2 2026-05-04 16:44 1.4M
20260504T12Z_MSC_GDPS_WindDir_IsbL-0600_LatLon0.15_PT087H.grib2 2026-05-04 16:44 1.4M
20260504T12Z_MSC_GDPS_WindDir_IsbL-0650_LatLon0.15_PT087H.grib2 2026-05-04 16:44 1.5M
20260504T12Z_MSC_GDPS_WindDir_IsbL-0700_LatLon0.15_PT087H.grib2 2026-05-04 16:44 1.6M
20260504T12Z_MSC_GDPS_WindDir_IsbL-0750_LatLon0.15_PT087H.grib2 2026-05-04 16:44 1.7M
20260504T12Z_MSC_GDPS_WindDir_IsbL-0800_LatLon0.15_PT087H.grib2 2026-05-04 16:44 1.8M
20260504T12Z_MSC_GDPS_WindDir_IsbL-0850_LatLon0.15_PT087H.grib2 2026-05-04 16:44 1.9M
20260504T12Z_MSC_GDPS_WindDir_IsbL-0875_LatLon0.15_PT087H.grib2 2026-05-04 16:44 1.9M
20260504T12Z_MSC_GDPS_WindDir_IsbL-0900_LatLon0.15_PT087H.grib2 2026-05-04 16:44 1.9M
20260504T12Z_MSC_GDPS_WindDir_IsbL-0925_LatLon0.15_PT087H.grib2 2026-05-04 16:44 2.0M
20260504T12Z_MSC_GDPS_WindDir_IsbL-0950_LatLon0.15_PT087H.grib2 2026-05-04 16:44 2.0M
20260504T12Z_MSC_GDPS_WindDir_IsbL-0970_LatLon0.15_PT087H.grib2 2026-05-04 16:44 2.0M
20260504T12Z_MSC_GDPS_WindDir_IsbL-0985_LatLon0.15_PT087H.grib2 2026-05-04 16:44 2.0M
20260504T12Z_MSC_GDPS_WindDir_IsbL-1000_LatLon0.15_PT087H.grib2 2026-05-04 16:44 2.0M
20260504T12Z_MSC_GDPS_WindDir_IsbL-1015_LatLon0.15_PT087H.grib2 2026-05-04 16:44 2.0M
20260504T12Z_MSC_GDPS_WindGust-Max_AGL-10m_LatLon0.15_PT087H.grib2 2026-05-04 16:44 2.2M
20260504T12Z_MSC_GDPS_WindGust-Min_AGL-10m_LatLon0.15_PT087H.grib2 2026-05-04 16:44 2.2M
20260504T12Z_MSC_GDPS_WindGust_AGL-10m_LatLon0.15_PT087H.grib2 2026-05-04 16:44 2.2M
20260504T12Z_MSC_GDPS_WindSpeed_AGL-10m_LatLon0.15_PT087H.grib2 2026-05-04 16:44 1.1M
20260504T12Z_MSC_GDPS_WindSpeed_AGL-120m_LatLon0.15_PT087H.grib2 2026-05-04 16:44 1.2M
20260504T12Z_MSC_GDPS_WindSpeed_AGL-40m_LatLon0.15_PT087H.grib2 2026-05-04 16:44 1.2M
20260504T12Z_MSC_GDPS_WindSpeed_AGL-80m_LatLon0.15_PT087H.grib2 2026-05-04 16:44 1.2M
20260504T12Z_MSC_GDPS_WindSpeed_IsbL-0001_LatLon0.15_PT087H.grib2 2026-05-04 16:44 654K
20260504T12Z_MSC_GDPS_WindSpeed_IsbL-0005_LatLon0.15_PT087H.grib2 2026-05-04 16:44 700K
20260504T12Z_MSC_GDPS_WindSpeed_IsbL-0010_LatLon0.15_PT087H.grib2 2026-05-04 16:44 630K
20260504T12Z_MSC_GDPS_WindSpeed_IsbL-0020_LatLon0.15_PT087H.grib2 2026-05-04 16:44 666K
20260504T12Z_MSC_GDPS_WindSpeed_IsbL-0030_LatLon0.15_PT087H.grib2 2026-05-04 16:44 670K
20260504T12Z_MSC_GDPS_WindSpeed_IsbL-0050_LatLon0.15_PT087H.grib2 2026-05-04 16:44 898K
20260504T12Z_MSC_GDPS_WindSpeed_IsbL-0100_LatLon0.15_PT087H.grib2 2026-05-04 16:44 1.1M
20260504T12Z_MSC_GDPS_WindSpeed_IsbL-0150_LatLon0.15_PT087H.grib2 2026-05-04 16:44 1.0M
20260504T12Z_MSC_GDPS_WindSpeed_IsbL-0175_LatLon0.15_PT087H.grib2 2026-05-04 16:44 1.0M
20260504T12Z_MSC_GDPS_WindSpeed_IsbL-0200_LatLon0.15_PT087H.grib2 2026-05-04 16:44 1.1M
20260504T12Z_MSC_GDPS_WindSpeed_IsbL-0225_LatLon0.15_PT087H.grib2 2026-05-04 16:44 1.1M
20260504T12Z_MSC_GDPS_WindSpeed_IsbL-0250_LatLon0.15_PT087H.grib2 2026-05-04 16:44 1.1M
20260504T12Z_MSC_GDPS_WindSpeed_IsbL-0275_LatLon0.15_PT087H.grib2 2026-05-04 16:44 1.1M
20260504T12Z_MSC_GDPS_WindSpeed_IsbL-0300_LatLon0.15_PT087H.grib2 2026-05-04 16:44 1.1M
20260504T12Z_MSC_GDPS_WindSpeed_IsbL-0350_LatLon0.15_PT087H.grib2 2026-05-04 16:44 1.1M
20260504T12Z_MSC_GDPS_WindSpeed_IsbL-0400_LatLon0.15_PT087H.grib2 2026-05-04 16:44 1.1M
20260504T12Z_MSC_GDPS_WindSpeed_IsbL-0450_LatLon0.15_PT087H.grib2 2026-05-04 16:44 1.1M
20260504T12Z_MSC_GDPS_WindSpeed_IsbL-0500_LatLon0.15_PT087H.grib2 2026-05-04 16:44 1.1M
20260504T12Z_MSC_GDPS_WindSpeed_IsbL-0550_LatLon0.15_PT087H.grib2 2026-05-04 16:44 1.1M
20260504T12Z_MSC_GDPS_WindSpeed_IsbL-0600_LatLon0.15_PT087H.grib2 2026-05-04 16:44 1.1M
20260504T12Z_MSC_GDPS_WindSpeed_IsbL-0650_LatLon0.15_PT087H.grib2 2026-05-04 16:44 1.4M
20260504T12Z_MSC_GDPS_WindSpeed_IsbL-0700_LatLon0.15_PT087H.grib2 2026-05-04 16:44 1.5M
20260504T12Z_MSC_GDPS_WindSpeed_IsbL-0750_LatLon0.15_PT087H.grib2 2026-05-04 16:44 1.5M
20260504T12Z_MSC_GDPS_WindSpeed_IsbL-0800_LatLon0.15_PT087H.grib2 2026-05-04 16:44 1.7M
20260504T12Z_MSC_GDPS_WindSpeed_IsbL-0850_LatLon0.15_PT087H.grib2 2026-05-04 16:44 1.7M
20260504T12Z_MSC_GDPS_WindSpeed_IsbL-0875_LatLon0.15_PT087H.grib2 2026-05-04 16:44 1.8M
20260504T12Z_MSC_GDPS_WindSpeed_IsbL-0900_LatLon0.15_PT087H.grib2 2026-05-04 16:44 1.8M
20260504T12Z_MSC_GDPS_WindSpeed_IsbL-0925_LatLon0.15_PT087H.grib2 2026-05-04 16:44 1.9M
20260504T12Z_MSC_GDPS_WindSpeed_IsbL-0950_LatLon0.15_PT087H.grib2 2026-05-04 16:44 1.9M
20260504T12Z_MSC_GDPS_WindSpeed_IsbL-0970_LatLon0.15_PT087H.grib2 2026-05-04 16:44 1.8M
20260504T12Z_MSC_GDPS_WindSpeed_IsbL-0985_LatLon0.15_PT087H.grib2 2026-05-04 16:44 1.8M
20260504T12Z_MSC_GDPS_WindSpeed_IsbL-1000_LatLon0.15_PT087H.grib2 2026-05-04 16:44 1.8M
20260504T12Z_MSC_GDPS_WindSpeed_IsbL-1015_LatLon0.15_PT087H.grib2 2026-05-04 16:44 1.8M
20260504T12Z_MSC_GDPS_WindU_AGL-10m_LatLon0.15_PT087H.grib2 2026-05-04 16:44 1.5M
20260504T12Z_MSC_GDPS_WindU_AGL-120m_LatLon0.15_PT087H.grib2 2026-05-04 16:44 960K
20260504T12Z_MSC_GDPS_WindU_AGL-40m_LatLon0.15_PT087H.grib2 2026-05-04 16:44 955K
20260504T12Z_MSC_GDPS_WindU_AGL-80m_LatLon0.15_PT087H.grib2 2026-05-04 16:44 960K
20260504T12Z_MSC_GDPS_WindU_IsbL-0001_LatLon0.15_PT087H.grib2 2026-05-04 16:44 512K
20260504T12Z_MSC_GDPS_WindU_IsbL-0005_LatLon0.15_PT087H.grib2 2026-05-04 16:44 699K
20260504T12Z_MSC_GDPS_WindU_IsbL-0010_LatLon0.15_PT087H.grib2 2026-05-04 16:44 705K
20260504T12Z_MSC_GDPS_WindU_IsbL-0020_LatLon0.15_PT087H.grib2 2026-05-04 16:44 733K
20260504T12Z_MSC_GDPS_WindU_IsbL-0030_LatLon0.15_PT087H.grib2 2026-05-04 16:44 743K
20260504T12Z_MSC_GDPS_WindU_IsbL-0050_LatLon0.15_PT087H.grib2 2026-05-04 16:44 765K
20260504T12Z_MSC_GDPS_WindU_IsbL-0100_LatLon0.15_PT087H.grib2 2026-05-04 16:44 918K
20260504T12Z_MSC_GDPS_WindU_IsbL-0150_LatLon0.15_PT087H.grib2 2026-05-04 16:44 1.0M
20260504T12Z_MSC_GDPS_WindU_IsbL-0175_LatLon0.15_PT087H.grib2 2026-05-04 16:44 1.0M
20260504T12Z_MSC_GDPS_WindU_IsbL-0200_LatLon0.15_PT087H.grib2 2026-05-04 16:44 841K
20260504T12Z_MSC_GDPS_WindU_IsbL-0225_LatLon0.15_PT087H.grib2 2026-05-04 16:44 849K
20260504T12Z_MSC_GDPS_WindU_IsbL-0250_LatLon0.15_PT087H.grib2 2026-05-04 16:44 846K
20260504T12Z_MSC_GDPS_WindU_IsbL-0275_LatLon0.15_PT087H.grib2 2026-05-04 16:44 928K
20260504T12Z_MSC_GDPS_WindU_IsbL-0300_LatLon0.15_PT087H.grib2 2026-05-04 16:44 921K
20260504T12Z_MSC_GDPS_WindU_IsbL-0350_LatLon0.15_PT087H.grib2 2026-05-04 16:44 879K
20260504T12Z_MSC_GDPS_WindU_IsbL-0400_LatLon0.15_PT087H.grib2 2026-05-04 16:44 884K
20260504T12Z_MSC_GDPS_WindU_IsbL-0450_LatLon0.15_PT087H.grib2 2026-05-04 16:44 887K
20260504T12Z_MSC_GDPS_WindU_IsbL-0500_LatLon0.15_PT087H.grib2 2026-05-04 16:44 1.1M
20260504T12Z_MSC_GDPS_WindU_IsbL-0550_LatLon0.15_PT087H.grib2 2026-05-04 16:44 1.1M
20260504T12Z_MSC_GDPS_WindU_IsbL-0600_LatLon0.15_PT087H.grib2 2026-05-04 16:44 1.1M
20260504T12Z_MSC_GDPS_WindU_IsbL-0650_LatLon0.15_PT087H.grib2 2026-05-04 16:44 1.2M
20260504T12Z_MSC_GDPS_WindU_IsbL-0700_LatLon0.15_PT087H.grib2 2026-05-04 16:44 1.2M
20260504T12Z_MSC_GDPS_WindU_IsbL-0750_LatLon0.15_PT087H.grib2 2026-05-04 16:44 1.3M
20260504T12Z_MSC_GDPS_WindU_IsbL-0800_LatLon0.15_PT087H.grib2 2026-05-04 16:44 1.3M
20260504T12Z_MSC_GDPS_WindU_IsbL-0850_LatLon0.15_PT087H.grib2 2026-05-04 16:44 1.4M
20260504T12Z_MSC_GDPS_WindU_IsbL-0875_LatLon0.15_PT087H.grib2 2026-05-04 16:44 1.4M
20260504T12Z_MSC_GDPS_WindU_IsbL-0900_LatLon0.15_PT087H.grib2 2026-05-04 16:44 1.5M
20260504T12Z_MSC_GDPS_WindU_IsbL-0925_LatLon0.15_PT087H.grib2 2026-05-04 16:44 1.4M
20260504T12Z_MSC_GDPS_WindU_IsbL-0950_LatLon0.15_PT087H.grib2 2026-05-04 16:44 1.4M
20260504T12Z_MSC_GDPS_WindU_IsbL-0970_LatLon0.15_PT087H.grib2 2026-05-04 16:44 1.4M
20260504T12Z_MSC_GDPS_WindU_IsbL-0985_LatLon0.15_PT087H.grib2 2026-05-04 16:44 1.4M
20260504T12Z_MSC_GDPS_WindU_IsbL-1000_LatLon0.15_PT087H.grib2 2026-05-04 16:44 1.7M
20260504T12Z_MSC_GDPS_WindU_IsbL-1015_LatLon0.15_PT087H.grib2 2026-05-04 16:44 1.6M
20260504T12Z_MSC_GDPS_WindV_AGL-10m_LatLon0.15_PT087H.grib2 2026-05-04 16:44 1.3M
20260504T12Z_MSC_GDPS_WindV_AGL-120m_LatLon0.15_PT087H.grib2 2026-05-04 16:44 962K
20260504T12Z_MSC_GDPS_WindV_AGL-40m_LatLon0.15_PT087H.grib2 2026-05-04 16:44 955K
20260504T12Z_MSC_GDPS_WindV_AGL-80m_LatLon0.15_PT087H.grib2 2026-05-04 16:44 961K
20260504T12Z_MSC_GDPS_WindV_IsbL-0001_LatLon0.15_PT087H.grib2 2026-05-04 16:44 726K
20260504T12Z_MSC_GDPS_WindV_IsbL-0005_LatLon0.15_PT087H.grib2 2026-05-04 16:44 867K
20260504T12Z_MSC_GDPS_WindV_IsbL-0010_LatLon0.15_PT087H.grib2 2026-05-04 16:44 800K
20260504T12Z_MSC_GDPS_WindV_IsbL-0020_LatLon0.15_PT087H.grib2 2026-05-04 16:44 850K
20260504T12Z_MSC_GDPS_WindV_IsbL-0030_LatLon0.15_PT087H.grib2 2026-05-04 16:44 856K
20260504T12Z_MSC_GDPS_WindV_IsbL-0050_LatLon0.15_PT087H.grib2 2026-05-04 16:44 899K
20260504T12Z_MSC_GDPS_WindV_IsbL-0100_LatLon0.15_PT087H.grib2 2026-05-04 16:44 1.0M
20260504T12Z_MSC_GDPS_WindV_IsbL-0150_LatLon0.15_PT087H.grib2 2026-05-04 16:44 1.0M
20260504T12Z_MSC_GDPS_WindV_IsbL-0175_LatLon0.15_PT087H.grib2 2026-05-04 16:44 815K
20260504T12Z_MSC_GDPS_WindV_IsbL-0200_LatLon0.15_PT087H.grib2 2026-05-04 16:44 841K
20260504T12Z_MSC_GDPS_WindV_IsbL-0225_LatLon0.15_PT087H.grib2 2026-05-04 16:44 846K
20260504T12Z_MSC_GDPS_WindV_IsbL-0250_LatLon0.15_PT087H.grib2 2026-05-04 16:44 903K
20260504T12Z_MSC_GDPS_WindV_IsbL-0275_LatLon0.15_PT087H.grib2 2026-05-04 16:44 925K
20260504T12Z_MSC_GDPS_WindV_IsbL-0300_LatLon0.15_PT087H.grib2 2026-05-04 16:44 917K
20260504T12Z_MSC_GDPS_WindV_IsbL-0350_LatLon0.15_PT087H.grib2 2026-05-04 16:44 871K
20260504T12Z_MSC_GDPS_WindV_IsbL-0400_LatLon0.15_PT087H.grib2 2026-05-04 16:44 874K
20260504T12Z_MSC_GDPS_WindV_IsbL-0450_LatLon0.15_PT087H.grib2 2026-05-04 16:44 1.1M
20260504T12Z_MSC_GDPS_WindV_IsbL-0500_LatLon0.15_PT087H.grib2 2026-05-04 16:44 1.1M
20260504T12Z_MSC_GDPS_WindV_IsbL-0550_LatLon0.15_PT087H.grib2 2026-05-04 16:44 1.1M
20260504T12Z_MSC_GDPS_WindV_IsbL-0600_LatLon0.15_PT087H.grib2 2026-05-04 16:44 1.1M
20260504T12Z_MSC_GDPS_WindV_IsbL-0650_LatLon0.15_PT087H.grib2 2026-05-04 16:44 1.2M
20260504T12Z_MSC_GDPS_WindV_IsbL-0700_LatLon0.15_PT087H.grib2 2026-05-04 16:44 1.2M
20260504T12Z_MSC_GDPS_WindV_IsbL-0750_LatLon0.15_PT087H.grib2 2026-05-04 16:44 1.3M
20260504T12Z_MSC_GDPS_WindV_IsbL-0800_LatLon0.15_PT087H.grib2 2026-05-04 16:44 1.3M
20260504T12Z_MSC_GDPS_WindV_IsbL-0850_LatLon0.15_PT087H.grib2 2026-05-04 16:44 1.4M
20260504T12Z_MSC_GDPS_WindV_IsbL-0875_LatLon0.15_PT087H.grib2 2026-05-04 16:44 1.4M
20260504T12Z_MSC_GDPS_WindV_IsbL-0900_LatLon0.15_PT087H.grib2 2026-05-04 16:44 1.4M
20260504T12Z_MSC_GDPS_WindV_IsbL-0925_LatLon0.15_PT087H.grib2 2026-05-04 16:44 1.4M
20260504T12Z_MSC_GDPS_WindV_IsbL-0950_LatLon0.15_PT087H.grib2 2026-05-04 16:44 1.4M
20260504T12Z_MSC_GDPS_WindV_IsbL-0970_LatLon0.15_PT087H.grib2 2026-05-04 16:44 1.4M
20260504T12Z_MSC_GDPS_WindV_IsbL-0985_LatLon0.15_PT087H.grib2 2026-05-04 16:44 1.4M
20260504T12Z_MSC_GDPS_WindV_IsbL-1000_LatLon0.15_PT087H.grib2 2026-05-04 16:44 1.4M
20260504T12Z_MSC_GDPS_WindV_IsbL-1015_LatLon0.15_PT087H.grib2 2026-05-04 16:44 1.3M